Home > Time Zones > World Clock > Weather > Germany > Ulm > Past weeks

Flag for Germany Weather past 2 weeks in Ulm, Baden-Württemberg, Germany

Now
54 °F

Fog.


Feels Like: 54 °F
Forecast: 48 / 67 °F
Wind: 2 mph from East

Location: Laupheim Airport

Current Time: Sep 3, 2015 at 9:17:52 AM

Latest Report: Sep 3, 2015 at 8:20 AM


Visibility: 0 mi

Pressure: 29.98 "Hg

Humidity: 94%

Dew point: 52 °F

Location of UlmLocation

Historic Weather in Ulm — Graph

°F

Ulm temperature yesterday

Maximum temperature yesterday: 66 °F (at 4:20 PM)
Minimum temperature yesterday: 54 °F (at 6:20 AM)
Average temperature yesterday: 59 °F

Past Weeks' High & Low Weather Summary

 TemperatureHumidityPressure
High90 °F (Aug 30, 3:20 PM)100% (Aug 19, 7:20 AM)30.30 "Hg (Aug 19, 7:20 AM)
Low46 °F (Aug 26, 5:20 AM)24% (Aug 31, 5:20 PM)29.74 "Hg (Aug 24, 8:20 AM)
Average65 °F70%30.06 "Hg
* Reported Aug 19 7:20 AM — Sep 3 7:20 AM, Ulm, Weather by CustomWeather, © 2015

Note: Actual official high and low records may vary slightly from our data, if they occured in-between our weather recording intervals... More about our weather records

Advertising

Ulm weather history for previous 24 hours

 ConditionsComfort  
Time TempWeatherWind HumidityBarometerVisibility
7:20 AM
Thu, Sep 3
52 °FFog.2 mph100%29.95 "Hg0 mi
6:20 AM52 °FFog.2 mph94%29.95 "Hg1 mi
5:20 AM52 °FFog.2 mph100%29.98 "Hg3 mi
4:20 AM52 °FFog.2 mph100%29.98 "Hg4 mi
3:20 AM54 °FPassing clouds.2 mph94%29.98 "Hg4 mi
2:20 AM55 °FPassing clouds.1 mph88%30.01 "HgN/A
1:20 AM54 °FPassing clouds.5 mph94%30.01 "HgN/A
12:20 AM55 °FPassing clouds.3 mph88%30.01 "HgN/A
11:20 PM
Wed, Sep 2
57 °FPassing clouds.3 mph82%30.01 "HgN/A
10:20 PM57 °FPassing clouds.3 mph82%30.01 "HgN/A
9:20 PM59 °FPassing clouds.3 mph77%30.01 "HgN/A
8:20 PM61 °FScattered clouds.3 mph68%30.01 "HgN/A
7:20 PM63 °FPartly sunny.8 mph64%30.01 "HgN/A
6:20 PM64 °FPartly sunny.7 mph60%30.01 "HgN/A
5:20 PM66 °FPartly sunny.6 mph60%30.01 "HgN/A
4:20 PM66 °FPartly sunny.7 mph52%30.01 "HgN/A
3:20 PM64 °FPartly sunny.6 mph56%30.01 "HgN/A
2:20 PM64 °FPartly sunny.5 mph60%30.04 "HgN/A
1:20 PM63 °FBroken clouds.6 mph64%30.04 "HgN/A
12:20 PM61 °FBroken clouds.3 mph72%30.04 "HgN/A
11:20 AM59 °FBroken clouds.3 mph77%30.07 "HgN/A
10:20 AM57 °FPartly sunny.6 mph82%30.07 "Hg5 mi
9:20 AM55 °FScattered clouds.5 mph88%30.07 "Hg4 mi
Weather by CustomWeather, © 2015

See weather overviewHow to use our weather pages